Orbital elements:
    C/2001 RX14 (LINEAR)
Epoch 2003 Jan. 1.0 TT = JDT 2452640.5
T 2003 Jan. 18.71473 TT                                 MPC
q   2.0575209            (2000.0)            P               Q
z  -0.0008058      Peri.  121.48484     -0.68613422     -0.71673351
 +/-0.0000257      Node    14.17222     +0.36322230     -0.48586477
e   1.0016580      Incl.   30.57784     +0.63030897     -0.50022845
Residuals in seconds of arc
010828 699  0.2-  0.2+    011021 850  0.9+  0.9+    011104 151  0.3+  0.2+
010828 644  0.2-  0.0     011021 850  0.7+  0.1+    011104 213  0.3+  0.6+
010828 699  0.5-  0.4+    011021 165 (3.9-  2.5-)   011104 151  0.3+  0.1-
010828 644  0.0   0.0     011021 165  0.9+  1.1-    011104 151  0.1+  0.1-
010828 699  0.5+  0.5+    011021 165  0.4+  1.6-    011104 213  0.1-  0.2-
010828 644  0.1-  0.1+    011021 165 (2.8+  0.1-)   011104 213  0.5+  1.2-
010828 699  1.0-  0.2-    011022 850  0.4+  0.1+    011107 341  0.2-  0.3-
010910 704  0.3+  0.1+    011022 850  0.1+  0.4+    011107 341  0.0   0.4-
010910 704  0.0   1.0-    011022 850  0.5+  0.4+    011107 341  0.2+  0.0
010910 704  0.2+  0.0     011022 850  0.1+  0.3+    011107 341  0.2-  0.3-
010910 704  0.1+  0.4-    011022 850  0.2+  0.0     011107 170  0.1+  0.0
010910 704  0.2-  0.2-    011022 213  1.0-  0.5-    011107 170  0.3-  0.8+
010911 704  0.1+  0.3-    011022 213  1.2-  0.5-    011108 322  0.2-  0.3-
010911 704  0.2+  0.0     011022 213  0.9-  0.6-    011108 322  0.5-  0.4-
010911 704  0.2+  0.1+    011022 118  0.5+  0.2+    011108 322  0.6-  0.9+
010911 704  0.0   0.2+    011022 213  1.5+  0.1-    011109 213  1.5-  0.5-
010911 704  0.1+  0.7+    011022 118  0.2+  0.0     011109 213  0.0   0.2+
010918 644  0.4-  0.2+    011022 213  0.6-  0.7-    011110 704  0.1+  0.2+
010918 644  0.4-  0.2+    011022 118  0.0   0.2-    011110 704  0.1-  0.0
010918 644  0.5-  0.2+    011022 213  0.3-  0.5-    011110 704  0.0   0.1+
010919 699  0.8+  0.2+    011023 859  0.2+  0.3-    011110 704  0.4-  0.2+
010919 699  0.3+  0.3+    011023 859  0.5+  0.1+    011110 704  0.9-  0.1+
010919 699  0.0   0.2+    011023 859  0.4+  0.3-    011114 402  0.3+  0.2+
010919 699  0.7+  0.2+    011023 859  0.6+  0.1+    011114 402  0.4+  0.2-
011013 699  0.4+  0.2-    011023 670  1.9+  0.6+    011114 402  0.3+  0.1-
011013 699  0.0   0.2+    011023 670  0.6-  0.1-    011118 170  0.1+  0.2-
011013 699  0.4+  0.2+    011023 696  0.1-  0.1+    011118 170  0.7+  0.3+
011013 699  0.1+  0.0     011023 696  0.1-  0.0     011118 213 (2.3+  1.4-)
011013 644  0.1+  0.0     011023 696  0.1-  0.1+    011118 213  0.9+  0.3-
011013 644  0.1-  0.1-    011023 696  0.2-  0.0     011118 213  0.1+  0.8-
011013 644  0.2-  0.2+    011023 678  0.2-  0.8-    011118 213  0.0   1.9+
011014 678  1.0+  1.0+    011023 678  0.4-  0.8-    011119 644  0.0   0.2+
011014 678  0.5-  0.9+    011023 678  0.9-  0.4+    011119 644  0.1+  0.1+
011014 678  0.5+  0.6+    011023 678  0.9-  0.6-    011119 644  0.3+  0.2+
011018 704  0.2+  0.1-    011023 678  0.7-  0.4-    011119 349  0.9+  0.0
011018 704  0.1+  0.0     011023 402  0.1+  0.0     011119 349  0.3+  0.0
011018 704  0.1+  0.4-    011023 402  0.1+  0.1-    011119 349  0.2+  0.2-
011018 678  0.8-  1.0-    011023 402  0.0   0.2+    011119 349  0.6+  0.2+
011018 704  0.2-  0.4-    011023 402  0.0   0.2+    011119 213  0.2-  0.5-
011018 704  0.7-  0.1-    011023 118  0.4+  0.1-    011119 213  0.3-  0.6-
011018 678  0.3+  1.2-    011023 118  0.3-  0.5-    011119 213  0.2-  0.5+
011018 678  1.4+  0.3-    011023 118  0.2-  0.1-    011120 699  0.0   0.3-
011018 678  0.2-  1.3-    011024 860  0.4-  1.3-    011120 699  0.1+  0.3-
011018 678  0.4-  1.3-    011024 860  0.7-  1.0-    011120 699  0.2-  0.2-
011018 046  0.3-  1.0-    011024 860  0.2-  1.8-    011120 699  0.1-  0.2-
011018 046  0.1-  0.7-    011024 860 (0.0   2.1-)   011120 360  0.2+  0.0
011018 046  0.9-  0.3+    011024 860 (1.8+  2.9-)   011120 360  0.2+  0.0
011018 595  0.2+  0.2+    011024 704  0.1-  0.1+    011120 360  0.2-  0.1-
011018 595  0.3-  0.4+    011024 704  0.4-  0.0     011120 170  0.2+  0.1-
011018 595  0.3-  0.6+    011024 704  0.1-  0.3+    011120 170  0.1+  0.1+
011019 422  0.3+  0.6-    011024 649  0.1-  0.1+    011121 402  0.3-  0.0
011019 422  0.1+  0.2+    011024 704  0.5-  0.0     011121 402  0.0   0.1-
011019 046  0.4+  0.4+    011024 649  0.1-  0.2+    011121 402  0.0   0.5-
011019 636  0.3-  0.3-    011024 704  0.3-  0.3+    011121 342  0.6+  0.1+
011019 046  0.5+  0.3+    011024 649  0.2+  0.0     011121 342  0.6+  0.3+
011019 046  0.2-  0.4+    011024 213  0.7-  0.1-    011121 213  1.7-  0.5+
011019 636  0.4+  0.2-    011024 213  0.1+  0.0     011121 213  0.5+  0.2+
011019 046  0.4+  0.1+    011024 213  0.1-  0.6-    011121 213  0.7-  0.3+
011019 636  1.1+  0.0     011024 213  1.3-  0.6-    011122 867  0.3+  0.0
011019 636  1.7+  0.2-    011024 213  0.3-  0.6-    011122 867  0.3+  0.1+
011019 198  0.5+  0.0     011025 711  0.0   0.9+    011122 867  0.2+  0.0
011019 198  0.5+  0.2+    011025 711  0.2-  0.6+    011122 213  0.6+  0.4-
011019 151  0.4-  0.6+    011025 711  0.2-  0.6+    011122 213  1.7-  0.4-
011019 151  0.1-  0.2+    011025 651  0.2+  0.8+    011122 170  0.1-  0.3-
011019 151  0.1-  0.3+    011025 651  0.3-  0.6+    011123 232  0.6-  0.5+
011019 198  0.4+  0.6+    011025 651  0.0   0.2+    011123 232  0.8-  0.2-
011019 151  0.1-  0.4+    011025 402  0.2+  0.1+    011124 903  0.3+  0.5-
011019 557  0.3+  0.1+    011025 402  0.2+  0.1+    011124 903  1.2-  1.3-
011019 157  0.1+  0.2-    011025 402  0.3+  0.2-    011124 903  0.7-  0.2+
011019 157  0.2-  0.3+    011026 402  0.2+  0.0     011124 213  0.0   0.1-
011019 157  0.2-  0.9+    011026 402  0.0   0.1-    011124 213  1.4+  0.4+
011019 557  0.2+  0.0     011026 402  0.3+  0.1+    011128 170  0.7+  1.1-
011019 557  0.2+  0.1-    011027 704  0.2-  0.0     011128 170  0.2-  0.0
011020 850  0.3-  0.4+    011027 704  0.8-  0.3-    011128 170  0.7+  0.0
011020 850  0.1-  0.0     011027 704  0.3-  0.2+    011128 213  1.2+  0.3+
011020 850  0.2+  0.3+    011027 704  0.7-  1.0+    011128 213  0.1+  0.3+
011020 642  0.7+  0.1+    011027 704  1.6-  1.1-    011128 213  0.0   0.7+
011020 642  1.7-  0.2+    011028 170  0.3+  1.1+    011205 170  0.2-  0.1-
011020 642  0.2+  0.0     011028 170  0.2+  1.5+    011205 170  1.0+  0.3+
011020 850  0.2+  0.2+    011102 118  0.2+  0.2-    011207 232  0.6-  0.5+
011020 608 (0.8-  4.0-)   011102 118  0.0   0.1-    011207 232  0.3+  0.2-
011020 608 (0.3-  3.3-)   011103 170  0.5+  0.3-    011209 213  1.4-  0.6+
011020 608  0.4-  0.5-    011103 170  0.6+  0.4+    011209 213  1.0-  1.0+
011020 946  0.0   0.2+    011103 170  0.3+  1.0+    011213 170  0.2-  0.0
011020 946  0.6+  0.6-    011103 213  0.1+  0.8+    011214 704  1.9+  0.5+
011020 946  0.6+  0.6-    011103 213  0.1+  0.8+    011214 704  1.2+  0.4-
011021 850  0.3-  0.3+    011103 213  0.7+  0.7+    011214 704  0.7+  1.1-
011021 850  0.0   0.0     011103 213  0.9-  0.0     011214 704  1.2-  1.9+
011021 850  0.4+  0.2+    011104 213  2.0-  0.5-    011214 704  1.5-  1.2-
011021 850  0.2+  0.3+    011104 151  0.2+  0.0
011021 850  0.2-  0.0     011104 213  0.6+  0.4+

Ephemeris:
    C/2001 RX14 (LINEAR)
Date    TT    R. A. (2000) Decl.     Delta      r     Elong.  Phase   m1    m2
2001 12 07    01 12.17   +22 07.9    4.150    4.830   128.9     9.1  16.4
2001 12 17    01 09.26   +21 56.2    4.197    4.746   118.4    10.5  16.4
2001 12 27    01 07.91   +21 50.5    4.259    4.661   108.3    11.6  16.3
2002 01 06    01 08.16   +21 52.2    4.328    4.577    98.4    12.3  16.3
2002 01 16    01 09.97   +22 02.1    4.401    4.492    89.0    12.6  16.2
2002 01 26    01 13.26   +22 20.7    4.472    4.408    79.9    12.7  16.2
2002 02 05    01 17.94   +22 47.9    4.538    4.323    71.2    12.5  16.1
2002 02 15    01 23.89   +23 23.5    4.596    4.238    62.9    12.0  16.1
2002 02 25    01 31.03   +24 07.0    4.641    4.153    55.0    11.3  16.0
2002 03 07    01 39.26   +24 57.8    4.673    4.069    47.5    10.4  15.9
2002 03 17    01 48.49   +25 55.2    4.690    3.984    40.3     9.3  15.9
2002 03 27    01 58.67   +26 58.7    4.690    3.899    33.7     8.2  15.8

